E24BD-10 Weather Reports


Display with metric or nautical units.
time (UTC)temp
F
wind
direction
speed
MPH
gust
MPH
rain 1hr
in
rain 24hr
in
rain mn
in
humidity
%
barometer
mb
20260504221934 88 0 0.0 0.0 0.00 0.00 0.00 64 998.0
20260504220410 88 0 0.0 0.0 0.00 0.00 0.00 63 998.0
20260504214846 88 0 0.0 0.0 0.00 0.00 0.00 62 998.0
20260504213321 88 0 0.0 0.0 0.00 0.00 0.00 62 998.0
20260504211757 88 0 0.0 0.0 0.00 0.00 0.00 62 998.0
20260504210232 88 0 0.0 0.0 0.00 0.00 0.00 62 998.0
20260504204708 87 0 0.0 0.0 0.00 0.00 0.00 62 997.0
20260504203143 88 0 0.0 0.0 0.00 0.00 0.00 61 998.0
20260504201619 88 0 0.0 0.0 0.00 0.00 0.00 60 998.0
20260504200054 88 0 0.0 0.0 0.00 0.00 0.00 60 998.0
20260504194530 88 0 0.0 0.0 0.00 0.00 0.00 60 998.0
20260504193005 88 0 0.0 0.0 0.00 0.00 0.00 59 998.0
20260504191440 88 0 0.0 0.0 0.00 0.00 0.00 60 998.0
20260504185916 89 0 0.0 0.0 0.00 0.00 0.00 59 998.0
20260504184351 88 0 0.0 0.0 0.00 0.00 0.00 59 998.0
20260504182827 89 0 0.0 0.0 0.00 0.00 0.00 57 999.0
20260504181303 88 0 0.0 0.0 0.00 0.00 0.00 58 999.0
20260504175738 88 0 0.0 0.0 0.00 0.00 0.00 59 999.0
20260504174213 88 0 0.0 0.0 0.00 0.00 0.00 59 1000.0
20260504172649 87 0 0.0 0.0 0.00 0.00 0.00 61 1000.0
20260504171124 87 0 0.0 0.0 0.00 0.00 0.00 61 1000.0
20260504150809 90 0 0.0 0.0 0.00 0.00 0.00 64 1000.0
20260504140757 90 0 0.0 0.0 0.00 0.00 0.00 63 999.0
20260504130812 91 0 0.0 0.0 0.00 0.00 0.00 61 998.0
20260504090109 94 0 0.0 0.0 0.00 0.00 0.00 52 996.0
20260504081506 92 0 0.0 0.0 0.00 0.00 0.00 56 998.0
20260504045447 102 0 0.0 0.0 0.00 0.00 0.00 50 998.0
20260504043923 102 0 0.0 0.0 0.00 0.00 0.00 50 999.0
20260504042358 101 0 0.0 0.0 0.00 0.00 0.00 49 999.0
20260504040834 101 0 0.0 0.0 0.00 0.00 0.00 50 999.0
20260504035309 101 0 0.0 0.0 0.00 0.00 0.00 50 999.0
20260504033745 101 0 0.0 0.0 0.00 0.00 0.00 50 999.0
20260504032220 101 0 0.0 0.0 0.00 0.00 0.00 50 999.0
20260504030656 100 0 0.0 0.0 0.00 0.00 0.00 51 1000.0
20260504025131 99 0 0.0 0.0 0.00 0.00 0.00 51 1000.0
20260504023607 99 0 0.0 0.0 0.00 0.00 0.00 52 999.0
20260504022042 98 0 0.0 0.0 0.00 0.00 0.00 53 999.0
20260504020517 98 0 0.0 0.0 0.00 0.00 0.00 53 999.0
20260504014953 97 0 0.0 0.0 0.00 0.00 0.00 54 1000.0
20260504013428 97 0 0.0 0.0 0.00 0.00 0.00 55 1000.0
20260504011903 97 0 0.0 0.0 0.00 0.00 0.00 55 1000.0
20260504010339 96 0 0.0 0.0 0.00 0.00 0.00 55 999.0
20260504004814 96 0 0.0 0.0 0.00 0.00 0.00 55 999.0
20260504003250 96 0 0.0 0.0 0.00 0.00 0.00 55 999.0
20260504001725 95 0 0.0 0.0 0.00 0.00 0.00 55 999.0
20260504000201 95 0 0.0 0.0 0.00 0.00 0.00 55 999.0
20260503234636 95 0 0.0 0.0 0.00 0.00 0.00 54 998.0
20260503233112 95 0 0.0 0.0 0.00 0.00 0.00 55 998.0
20260503231547 95 0 0.0 0.0 0.00 0.00 0.00 55 998.0
20260503230023 95 0 0.0 0.0 0.00 0.00 0.00 55 998.0
20260503224458 95 0 0.0 0.0 0.00 0.00 0.00 55 998.0